TimeCDT,TemperatureF,Dew PointF,Humidity,Sea Level PressureIn,VisibilityMPH,Wind Direction,Wind SpeedMPH,Gust SpeedMPH,PrecipitationIn,Events,Conditions,WindDirDegrees,DateUTC
12:15 AM,59.0,32.0,36,29.75,10.0,SW,15.0,19.6,N/A,,Overcast,230,2012-10-09 05:15:00
12:35 AM,57.2,32.0,38,29.75,10.0,WSW,10.4,17.3,N/A,,Overcast,240,2012-10-09 05:35:00
12:55 AM,57.2,33.8,41,29.76,10.0,WSW,16.1,24.2,N/A,Rain,Light Rain,250,2012-10-09 05:55:00
1:15 AM,55.4,37.4,51,29.76,10.0,WSW,9.2,19.6,N/A,Rain,Rain,240,2012-10-09 06:15:00
1:35 AM,53.6,41.0,62,29.77,10.0,SW,8.1,-,N/A,Rain,Light Rain,230,2012-10-09 06:35:00
1:55 AM,51.8,42.8,71,29.78,10.0,SW,6.9,-,N/A,Rain,Rain,230,2012-10-09 06:55:00
2:15 AM,50.0,44.6,82,29.78,10.0,SW,4.6,-,0.01,Rain,Light Rain,220,2012-10-09 07:15:00
2:35 AM,48.2,46.4,93,29.77,10.0,Calm,Calm,-,0.01,Rain,Light Rain,0,2012-10-09 07:35:00
3:15 AM,46.4,46.4,100,29.76,10.0,South,4.6,-,N/A,,Overcast,190,2012-10-09 08:15:00
3:35 AM,46.4,46.4,100,29.76,10.0,Calm,Calm,-,N/A,,Overcast,0,2012-10-09 08:35:00
3:55 AM,46.4,46.4,100,29.75,10.0,Calm,Calm,-,N/A,,Mostly Cloudy,0,2012-10-09 08:55:00
4:15 AM,46.4,46.4,100,29.75,10.0,South,3.5,-,N/A,,Mostly Cloudy,190,2012-10-09 09:15:00
4:35 AM,46.4,46.4,100,29.76,10.0,South,3.5,-,N/A,,Overcast,180,2012-10-09 09:35:00
4:55 AM,46.4,46.4,100,29.76,10.0,Calm,Calm,-,N/A,,Overcast,0,2012-10-09 09:55:00
5:15 AM,46.4,46.4,100,29.76,10.0,Calm,Calm,-,N/A,,Overcast,0,2012-10-09 10:15:00
5:35 AM,46.4,46.4,100,29.75,10.0,South,3.5,-,0.01,,Overcast,180,2012-10-09 10:35:00
6:15 AM,46.4,46.4,100,29.76,10.0,SSW,3.5,-,N/A,,Mostly Cloudy,200,2012-10-09 11:15:00
6:35 AM,46.4,46.4,100,29.76,7.0,Calm,Calm,-,N/A,,Overcast,0,2012-10-09 11:35:00
6:55 AM,46.4,46.4,100,29.76,10.0,Calm,Calm,-,N/A,,Overcast,0,2012-10-09 11:55:00
7:15 AM,46.4,46.4,100,29.76,10.0,Calm,Calm,-,N/A,,Overcast,0,2012-10-09 12:15:00
7:35 AM,46.4,46.4,100,29.76,10.0,Calm,Calm,-,N/A,,Overcast,0,2012-10-09 12:35:00
7:55 AM,46.4,46.4,100,29.76,10.0,Calm,Calm,-,N/A,,Overcast,0,2012-10-09 12:55:00
8:15 AM,46.4,46.4,100,29.77,10.0,Calm,Calm,-,N/A,,Drizzle,0,2012-10-09 13:15:00
8:35 AM,46.4,46.4,100,29.76,10.0,Calm,Calm,-,N/A,Rain,Light Rain,0,2012-10-09 13:35:00
8:55 AM,46.4,46.4,100,29.76,10.0,Calm,Calm,-,N/A,Rain,Rain,0,2012-10-09 13:55:00
9:15 AM,46.4,46.4,100,29.76,10.0,SSW,4.6,-,N/A,Rain,Rain,200,2012-10-09 14:15:00
9:35 AM,46.4,46.4,100,29.76,7.0,SSW,4.6,-,0.01,Rain,Rain,200,2012-10-09 14:35:00
9:55 AM,46.4,46.4,100,29.75,10.0,South,4.6,-,0.01,,Light Drizzle,190,2012-10-09 14:55:00
10:15 AM,46.4,46.4,100,29.75,10.0,South,5.8,-,0.01,,Overcast,190,2012-10-09 15:15:00
10:35 AM,46.4,46.4,100,29.75,10.0,SSW,4.6,-,0.01,Rain,Light Rain,200,2012-10-09 15:35:00
10:55 AM,46.4,46.4,100,29.75,10.0,SSW,5.8,-,0.01,,Light Drizzle,200,2012-10-09 15:55:00
11:15 AM,46.4,46.4,100,29.75,7.0,SSW,5.8,-,N/A,Rain,Rain,210,2012-10-09 16:15:00
11:35 AM,48.2,48.2,100,29.75,5.0,SW,6.9,-,N/A,Rain,Light Rain,230,2012-10-09 16:35:00
11:55 AM,46.4,46.4,100,29.76,3.0,WSW,5.8,-,0.05,Rain,Rain,240,2012-10-09 16:55:00
12:15 PM,46.4,46.4,100,29.78,5.0,WNW,16.1,25.3,0.03,Rain,Rain,290,2012-10-09 17:15:00
12:35 PM,44.6,44.6,100,29.78,7.0,WNW,10.4,17.3,0.05,Rain,Rain,300,2012-10-09 17:35:00
12:55 PM,44.6,42.8,93,29.78,7.0,WNW,9.2,17.3,0.07,Rain,Rain,290,2012-10-09 17:55:00
1:15 PM,44.6,44.6,100,29.78,7.0,West,10.4,-,N/A,Rain,Light Rain,280,2012-10-09 18:15:00
1:35 PM,44.6,42.8,93,29.79,7.0,West,10.4,-,0.01,Rain,Light Rain,280,2012-10-09 18:35:00
1:55 PM,42.8,42.8,100,29.79,5.0,WNW,10.4,18.4,0.02,Rain,Rain,290,2012-10-09 18:55:00
2:15 PM,42.8,42.8,100,29.80,4.0,WNW,5.8,17.3,0.01,Rain,Rain,290,2012-10-09 19:15:00
2:35 PM,42.8,42.8,100,29.79,10.0,West,6.9,-,0.01,Rain,Light Rain,260,2012-10-09 19:35:00
2:55 PM,42.8,42.8,100,29.79,10.0,SW,4.6,-,0.01,,Mostly Cloudy,230,2012-10-09 19:55:00
3:15 PM,42.8,42.8,100,29.80,10.0,SW,4.6,-,N/A,,Scattered Clouds,230,2012-10-09 20:15:00
3:35 PM,42.8,42.8,100,29.79,10.0,SW,4.6,-,N/A,,Clear,220,2012-10-09 20:35:00
3:55 PM,42.8,42.8,100,29.79,10.0,SW,5.8,-,N/A,,Clear,220,2012-10-09 20:55:00
4:15 PM,42.8,42.8,100,29.80,10.0,SSW,4.6,-,N/A,,Clear,210,2012-10-09 21:15:00
4:35 PM,44.6,42.8,93,29.80,10.0,SW,6.9,-,N/A,,Scattered Clouds,220,2012-10-09 21:35:00
4:55 PM,44.6,42.8,93,29.80,10.0,SW,4.6,-,N/A,,Overcast,220,2012-10-09 21:55:00
5:15 PM,44.6,42.8,93,29.80,10.0,SW,4.6,-,N/A,,Overcast,220,2012-10-09 22:15:00
5:35 PM,44.6,42.8,93,29.80,10.0,SW,5.8,-,N/A,,Overcast,230,2012-10-09 22:35:00
5:55 PM,44.6,42.8,93,29.80,10.0,WSW,5.8,-,N/A,,Overcast,240,2012-10-09 22:55:00
6:15 PM,44.6,42.8,93,29.81,10.0,SW,6.9,-,N/A,,Overcast,230,2012-10-09 23:15:00
6:35 PM,44.6,41.0,87,29.81,10.0,West,6.9,-,N/A,,Overcast,270,2012-10-09 23:35:00
6:55 PM,44.6,35.6,71,29.81,10.0,West,8.1,-,N/A,,Overcast,280,2012-10-09 23:55:00
7:15 PM,42.8,32.0,66,29.83,10.0,West,6.9,-,N/A,,Overcast,280,2012-10-10 00:15:00
7:35 PM,42.8,32.0,66,29.83,10.0,West,4.6,-,N/A,,Overcast,270,2012-10-10 00:35:00
7:55 PM,42.8,32.0,66,29.84,10.0,West,3.5,-,N/A,,Overcast,260,2012-10-10 00:55:00
8:15 PM,41.0,32.0,70,29.84,10.0,Calm,Calm,-,N/A,,Overcast,0,2012-10-10 01:15:00
8:35 PM,41.0,33.8,76,29.85,10.0,WSW,3.5,-,N/A,,Overcast,240,2012-10-10 01:35:00
8:55 PM,41.0,33.8,76,29.85,10.0,Calm,Calm,-,N/A,,Overcast,0,2012-10-10 01:55:00
9:15 PM,41.0,33.8,76,29.86,10.0,Calm,Calm,-,N/A,,Overcast,0,2012-10-10 02:15:00
9:35 PM,41.0,32.0,70,29.86,10.0,WSW,6.9,-,N/A,,Overcast,250,2012-10-10 02:35:00
9:55 PM,42.8,32.0,66,29.87,10.0,WNW,5.8,-,N/A,,Overcast,290,2012-10-10 02:55:00
10:15 PM,42.8,32.0,66,29.88,10.0,WNW,8.1,-,N/A,,Overcast,300,2012-10-10 03:15:00
10:35 PM,42.8,32.0,66,29.89,10.0,WNW,12.7,27.6,N/A,,Overcast,290,2012-10-10 03:35:00
10:55 PM,41.0,32.0,70,29.89,10.0,WNW,9.2,16.1,N/A,,Mostly Cloudy,290,2012-10-10 03:55:00
11:15 PM,41.0,30.2,65,29.90,10.0,WNW,8.1,20.7,N/A,,Scattered Clouds,290,2012-10-10 04:15:00
11:35 PM,39.2,30.2,70,29.90,10.0,WNW,9.2,-,N/A,,Clear,290,2012-10-10 04:35:00
11:55 PM,37.4,30.2,75,29.91,10.0,West,9.2,-,N/A,,Clear,280,2012-10-10 04:55:00